Flag for Canada Weather past 2 weeks in Vancouver, British Columbia, Canada

Now
39 °F

Mostly cloudy.


Feels Like: 32 °F
Forecast: 38 / 44 °F
Wind: 12 mph from East

Location: Vancouver International Air-Port

Current Time: Dec 27, 2014 at 9:21:34 AM

Latest Report: Dec 27, 2014 at 9:00 AM


Visibility: 8 mi

Pressure: 30.08 "Hg

Humidity: 93%

Dew point: 37 °F

Location of VancouverLocation

Historic Weather in Vancouver — Graph

°F

Vancouver temperature yesterday

Maximum temperature yesterday: 41 °F (at 11:00 AM)
Minimum temperature yesterday: 36 °F (at 12:00 AM)
Average temperature yesterday: 39 °F

Past Weeks' High & Low Weather Summary

 TemperatureHumidityPressure
High54 °F (Dec 12, 12:00 PM)100% (Dec 12, 6:00 PM)30.39 "Hg (Dec 12, 6:00 PM)
Low28 °F (Dec 15, 4:00 AM)66% (Dec 15, 1:00 PM)29.31 "Hg (Dec 20, 10:00 PM)
Average42 °F89%29.98 "Hg
* Reported Dec 12 8:00 AM — Dec 27 8:00 AM, Vancouver, Weather by CustomWeather, © 2014

Note: Actual official high and low records may vary slightly from our data, if they occured in-between our weather recording intervals... More about our weather records

Advertising

Vancouver weather history for previous 24 hours

 ConditionsComfort  
Time TempWeatherWind HumidityBarometerVisibility
8:00 AM
Dec 27
39 °FLight rain. Low clouds.10 mph93%30.09 "Hg8 mi
7:00 AM39 °FLight rain. Mostly cloudy.9 mph93%30.12 "Hg8 mi
6:00 AM39 °FLight rain. Mostly cloudy.10 mph93%30.16 "Hg10 mi
5:00 AM39 °FLight rain. Mostly cloudy.9 mph93%30.19 "Hg10 mi
4:00 AM39 °FLight rain. Mostly cloudy.10 mph93%30.23 "Hg10 mi
3:45 AM39 °FLight rain. Mostly cloudy.10 mph93%30.24 "Hg12 mi
3:00 AM39 °FLight rain. Mostly cloudy.10 mph93%30.26 "Hg12 mi
2:00 AM39 °FLight rain. Mostly cloudy.8 mph93%30.28 "Hg12 mi
1:00 AM39 °FLight rain. Overcast.8 mph93%30.29 "Hg12 mi
12:00 AM39 °FLight rain. Overcast.7 mph93%30.31 "Hg12 mi
11:00 PM
Dec 26
39 °FMostly cloudy.9 mph93%30.32 "Hg15 mi
10:00 PM39 °FMostly cloudy.6 mph87%30.33 "Hg15 mi
9:00 PM39 °FOvercast.7 mph87%30.34 "Hg15 mi
8:00 PM39 °FMostly cloudy.5 mph87%30.35 "Hg15 mi
7:00 PM39 °FMostly cloudy.5 mph87%30.35 "Hg15 mi
6:00 PM39 °FOvercast.5 mph87%30.36 "Hg15 mi
5:00 PM39 °FMostly cloudy.5 mph87%30.36 "Hg15 mi
4:00 PM41 °FOvercast.7 mph81%30.36 "Hg15 mi
3:00 PM41 °FOvercast.7 mph81%30.36 "Hg15 mi
2:00 PM41 °FMostly cloudy.7 mph81%30.36 "Hg15 mi
1:00 PM41 °FOvercast.8 mph87%30.37 "Hg15 mi
12:00 PM41 °FMostly cloudy.7 mph81%30.38 "Hg15 mi
11:00 AM41 °FMostly cloudy.6 mph81%30.39 "Hg15 mi
10:00 AM39 °FMostly cloudy.6 mph93%30.39 "Hg15 mi
9:00 AM39 °FLight rain. Overcast.8 mph87%30.38 "Hg10 mi
Weather by CustomWeather, © 2014

See weather overviewHow to use our weather pages